IRIDIUM 33 DEB, 38474

Orbit data source: Space-Track

IRIDIUM 33 DEB, 38474 is space debris in LEO originally from a launch on Sun, 14 Sep 1997 UTC launched from the Tyuratam Missile And Space Complex (TTMTR). The debris from Iridium 33, an American commercial communications satellite, has been tracked extensively since its accidental collision with the defunct Russian satellite Cosmos 2251 in 2009. This event, occurring at high speed in low Earth orbit (LEO), generated thousands of pieces of space debris, significantly increasing the risk of further collisions. The Iridium 33 debris cloud has impacted space traffic management and orbital debris mitigation strategies, making it a subject of ongoing study in space situational awareness.

Loading next visibility...
IRIDIUM 33 DEB details
Identifier
38474, 1997-051AAB
Orbit
LEO
Last TLE update2 days ago
Origin
Flag of USIridium (US)
ManufacturerUnknown
MissionSpacecraft
Bus & MotorUnknown
MassUnknown
Launch date (UTC)
1997-09-14 (27 years ago)
Launch vehicleUnknown
Launch site
Tyuratam Missile And Space Complex (TTMTR)
Object type
Payload
Rocket body
Debris
Shape & HBRUnknown
Radar Cross SectionSmall (<0.1 m²)

Expand to show TLE details & history

TLE from 2 days ago
0 IRIDIUM 33 DEB
1 38474U 97051AAB 24359.73201584  .00006082  00000-0  16227-2 0  9997
2 38474  86.3452 163.5668 0026012 182.9478 177.1577 14.48092989602042
Epoch: 2024-12-24T17:34Z
Definitive object data (Epoch: 2024-12-24T17:34:06.168Z)
Latitude0.00001°
Longitude166.3052°
Altitude753.43 km
Speed7.468 km/s
True Right ascension10h 54m 16s
True Declination0° 00' 00"
Sunlit
Object was in daylight at TLE epoch
Visualization TLE readout
Latitude31.73247°
Longitude-16.67779°
Altitude719.828 km
Speed7.507 km/s
Apparent Right ascension22h 07m 26s
Apparent Declination-1° 53' 46"
Sunlit
Object is in daylight
Visualization observer readout
Local Sidereal Time09:24:18
Azimuth342.816° N
Elevation-50.738°
Doppler factor1
Orbital elements
Apogee altitude747.316 km
Perigee altitude710.343 km
Semi-major axis7,106.967 km
Eccentricity0.0026012
Inclination86.3452°
RAAN163.5668°
Arg. of periapsis182.9478°
True anomaly177.17243°
Mean anomaly177.1577°
Eccentric anomaly177.16507°
Mean motion3.62257 °/min
BSTAR0.0016227
Orbital period99.38 mins
Loading maneuver chart data...

IRIDIUM 33 DEB Visibility forecast

Observer location: undefined°, undefined

Span
Click to sort rows by Start time (UTC) header in descending order
Start Az.
Max El. time (UTC)
Max El. Az.
Max El.
End time (UTC)
End Az.
9 mins2024-12-26 11:08:11.338Z158.184° S2024-12-26 11:13:11.338Z73.354° E35.079°2024-12-26 11:17:11.338Z16.88° NNE
5 mins2024-12-26 12:51:11.338Z259.775° W2024-12-26 12:53:11.338Z289.497° WNW17.484°2024-12-26 12:56:11.338Z326.746° NNW
8 mins2024-12-26 23:13:11.338Z356.303° N2024-12-26 23:17:11.338Z202.357° SSW44.589°2024-12-26 23:21:11.338Z180.651° SSW
|